Portada
METAR-TAF:

METAR-TAF

Aeroports :

NWS Office

Pohnpei, Micronèsia

latitud: 06-58N, longitud: 158-13E, altitud: 39 m

Observació

L'informe es va fer fa 42 minuts, a les 07:53 UTC
Vent 3 kt amb direcció variable
Temperatura 27°C
Humitat 89%
Pressió 1011 hPa
Visibilitat: 24.1 km
Escasses núvols a una alçada de 1800 ft
Cel ennuvolat a una alçada de 13000 ft
Cel cobert a una alçada de 30000 ft

METAR: PTTP 120753Z VRB03KT 15SM FEW018 BKN130 OVC300 27/25 A2984 RMK SLP103 T02720250

Hora: 19:35 (08:35 UTC)


TAF: manca

Observacions i pronòstics meteorològics de més de 4000 aeroports (METAR i TAF).

Les estacions disponibles són els punts grocs i vermells al mapa.

Posi el ratolí al punt desitjat per veure el nom de l'estació.

Feu clic per veure les observacions i els pronòstics meteorològics.

Per canviar el mapa: feu clic els botons verds amb una creu de color negre per apropar; al botó verd amb un guió per allunyar la imatge; o en les fletxes verdes per a mapes adjacents.


METAR-TAF: